Location: Arbon
(43.0005°N, 0.7472°E)
Time: 23:54:56
(UTC+00:00)

Explorer 7 - Visible Passes

Search period start: 05 December 2020 00:00
Search period end: 15 December 2020 00:00
Orbit: 484 x 678 km, 50.3° (Epoch: 05 December)

Date Brightness Start Highest point End Pass type
(mag) Time Alt. Az. Time Alt. Az. Time Alt. Az.
05 Dec 6.6 05:09:22 76° WSW 05:09:34 80° SW 05:13:36 10° SE visible
06 Dec 7.0 05:14:05 51° SW 05:14:08 51° SW 05:18:02 10° SE visible
07 Dec 7.8 05:18:52 32° SW 05:18:52 32° SW 05:22:14 10° SSE visible
08 Dec 8.5 05:23:43 20° SSW 05:23:43 20° SSW 05:26:04 10° S visible
09 Dec 9.2 05:28:39 11° SSW 05:28:39 11° SSW 05:29:09 10° SSW visible
13 Dec 9.9 19:41:20 10° SW 19:41:44 12° SW 19:41:44 12° SW visible
14 Dec 9.0 18:07:30 10° S 18:10:20 17° SE 18:10:20 17° SE visible
14 Dec 9.8 19:45:43 10° SW 19:46:39 16° SW 19:46:39 16° SW visible
